TimeEST,TemperatureF,Dew PointF,Humidity,Sea Level PressureIn,VisibilityMPH,Wind Direction,Wind SpeedMPH,Gust SpeedMPH,PrecipitationIn,Events,Conditions,WindDirDegrees,DateUTC
12:53 AM,39.9,28.0,63,30.23,10.0,South,6.9,-,N/A,,Clear,190,2013-11-09 05:53:00
1:53 AM,41.0,28.0,60,30.22,10.0,South,9.2,-,N/A,,Clear,180,2013-11-09 06:53:00
2:53 AM,39.9,28.0,63,30.21,10.0,South,8.1,-,N/A,,Clear,190,2013-11-09 07:53:00
3:53 AM,39.0,28.0,65,30.19,10.0,South,11.5,-,N/A,,Clear,190,2013-11-09 08:53:00
4:53 AM,37.9,27.0,65,30.18,10.0,South,10.4,-,N/A,,Clear,180,2013-11-09 09:53:00
5:53 AM,37.9,26.1,62,30.17,10.0,South,9.2,-,N/A,,Clear,190,2013-11-09 10:53:00
6:53 AM,37.9,26.1,62,30.16,10.0,South,13.8,21.9,N/A,,Clear,190,2013-11-09 11:53:00
7:53 AM,39.9,25.0,55,30.16,10.0,SSW,12.7,-,N/A,,Clear,200,2013-11-09 12:53:00
8:53 AM,43.0,27.0,53,30.15,10.0,South,13.8,-,N/A,,Clear,190,2013-11-09 13:53:00
9:53 AM,48.0,27.0,44,30.13,10.0,SSW,15.0,21.9,N/A,,Clear,210,2013-11-09 14:53:00
10:53 AM,51.1,30.0,44,30.10,10.0,SSW,17.3,23.0,N/A,,Clear,210,2013-11-09 15:53:00
11:53 AM,54.0,30.0,40,30.08,10.0,SW,18.4,27.6,N/A,,Clear,230,2013-11-09 16:53:00
12:53 PM,57.0,32.0,39,30.04,10.0,SW,18.4,24.2,N/A,,Clear,230,2013-11-09 17:53:00
1:53 PM,59.0,33.1,38,30.01,10.0,SW,23.0,29.9,N/A,,Clear,220,2013-11-09 18:53:00
2:53 PM,60.1,33.1,36,30.02,10.0,WSW,17.3,26.5,N/A,,Clear,240,2013-11-09 19:53:00
3:53 PM,60.1,33.1,36,30.01,10.0,SW,18.4,26.5,N/A,,Clear,230,2013-11-09 20:53:00
4:53 PM,59.0,33.1,38,30.01,10.0,SW,13.8,26.5,N/A,,Clear,230,2013-11-09 21:53:00
5:53 PM,57.0,34.0,42,30.02,10.0,SW,12.7,23.0,N/A,,Clear,230,2013-11-09 22:53:00
6:53 PM,55.9,34.0,44,30.04,10.0,SW,11.5,20.7,N/A,,Clear,230,2013-11-09 23:53:00
7:53 PM,55.0,35.1,47,30.06,10.0,SW,15.0,-,N/A,,Clear,230,2013-11-10 00:53:00
8:53 PM,54.0,35.1,49,30.06,10.0,SW,13.8,-,N/A,,Clear,230,2013-11-10 01:53:00
9:53 PM,53.1,36.0,52,30.06,10.0,SW,16.1,24.2,N/A,,Clear,230,2013-11-10 02:53:00
10:53 PM,52.0,37.0,57,30.08,10.0,WSW,12.7,-,N/A,,Clear,240,2013-11-10 03:53:00
11:53 PM,51.1,37.0,59,30.08,10.0,WSW,10.4,-,N/A,,Clear,250,2013-11-10 04:53:00